This is the latest recevied weather packets stored in our database for station/object K7NDG. If no packets are shown the sender has not sent any weather packets the latest 10 day(s).
| Time | Temp. | Humidity | Pressure | Rain* | Wind** | Luminosity | Snow |
|---|---|---|---|---|---|---|---|
| 1788571767 | 18.33° C | 68% | 1013.9 hPa | 0 mm | - | 10 W/m² | - |
| 1788571463 | 18.89° C | 65% | 1013.7 hPa | 0 mm | - | 11 W/m² | - |
| 1788571160 | 19.44° C | 62% | 1013.5 hPa | 0 mm | - | 16 W/m² | - |
| 1788570855 | 20° C | 62% | 1013.2 hPa | 0 mm | - | 29 W/m² | - |
| 1788570550 | 20° C | 61% | 1013.2 hPa | 0 mm | - | 33 W/m² | - |
| 1788570245 | 20° C | 60% | 1013.1 hPa | 0 mm | - | 39 W/m² | - |
| 1788569941 | 20.56° C | 58% | 1013.1 hPa | 0 mm | - | 62 W/m² | - |
| 1788569637 | 21.11° C | 56% | 1013.1 hPa | 0 mm | - | 86 W/m² | - |
| 1788569332 | 21.11° C | 54% | 1013 hPa | 0 mm | - | 70 W/m² | - |
| 1788569026 | 21.67° C | 52% | 1013.1 hPa | 0 mm | - | 53 W/m² | - |
| 1788568721 | 22.22° C | 53% | 1012.8 hPa | 0 mm | - | 121 W/m² | - |
| 1788568417 | 22.22° C | 57% | 1012.6 hPa | 0 mm | - | 174 W/m² | - |
| 1788568112 | 22.22° C | 56% | 1012.7 hPa | 0 mm | - | 208 W/m² | - |
| 1788567806 | 21.67° C | 49% | 1012.7 hPa | 0 mm | - | 242 W/m² | - |
| 1788567502 | 21.67° C | 52% | 1012.7 hPa | 0 mm | - | 204 W/m² | - |
| 1788567201 | 21.11° C | 54% | 1012.7 hPa | 0 mm | - | 177 W/m² | - |
| 1788566897 | 20.56° C | 54% | 1012.7 hPa | 0 mm | - | 225 W/m² | - |
| 1788566592 | 21.11° C | 53% | 1012.7 hPa | 0 mm | - | 49 W/m² | - |
| 1788566287 | 21.11° C | 51% | 1012.4 hPa | 0 mm | - | 51 W/m² | - |
| 1788565982 | 22.22° C | 49% | 1012.4 hPa | 0 mm | - | 59 W/m² | - |
| 1788565677 | 22.78° C | 49% | 1012.5 hPa | 0 mm | - | 61 W/m² | - |
| 1788565372 | 23.33° C | 47% | 1012.5 hPa | 0 mm | - | 84 W/m² | - |
| 1788565068 | 23.33° C | 46% | 1012.2 hPa | 0 mm | - | 84 W/m² | - |
| 1788564764 | 23.89° C | 45% | 1012.3 hPa | 0 mm | - | 318 W/m² | - |
| 1788564460 | 23.89° C | 46% | 1012.5 hPa | 0 mm | - | 303 W/m² | - |
* Rain latest hour (hover to see other rain measurements)
** Current wind speed in m/s (hover to see current wind gust speed)